TimeMST,TemperatureF,Dew PointF,Humidity,Sea Level PressureIn,VisibilityMPH,Wind Direction,Wind SpeedMPH,Gust SpeedMPH,PrecipitationIn,Events,Conditions,WindDirDegrees,DateUTC
12:55 AM,30.9,24.1,76,30.50,10.0,SSW,5.8,-,N/A,,Overcast,200,2013-02-15 07:55:00
1:55 AM,33.1,25.0,72,30.50,10.0,SW,6.9,-,N/A,,Overcast,230,2013-02-15 08:55:00
2:55 AM,32.0,24.1,73,30.51,10.0,SSW,5.8,-,N/A,,Overcast,210,2013-02-15 09:55:00
3:55 AM,28.9,23.0,78,30.51,10.0,Calm,Calm,-,N/A,,Mostly Cloudy,0,2013-02-15 10:55:00
4:55 AM,25.0,21.9,88,30.54,10.0,Calm,Calm,-,N/A,,Scattered Clouds,0,2013-02-15 11:55:00
5:55 AM,23.0,21.0,92,30.55,10.0,Calm,Calm,-,N/A,,Clear,0,2013-02-15 12:55:00
6:55 AM,25.0,21.9,88,30.55,10.0,Calm,Calm,-,N/A,,Overcast,0,2013-02-15 13:55:00
7:55 AM,27.0,23.0,85,30.53,10.0,Calm,Calm,-,N/A,,Overcast,0,2013-02-15 14:55:00
8:55 AM,28.0,24.1,85,30.54,10.0,Calm,Calm,-,N/A,,Overcast,0,2013-02-15 15:55:00
9:55 AM,30.0,25.0,82,30.54,10.0,Calm,Calm,-,N/A,,Overcast,0,2013-02-15 16:55:00
10:55 AM,32.0,24.1,73,30.55,10.0,Calm,Calm,-,N/A,,Overcast,0,2013-02-15 17:55:00
11:55 AM,35.1,26.1,70,30.54,10.0,SE,3.5,-,N/A,,Overcast,140,2013-02-15 18:55:00
12:55 PM,36.0,27.0,70,30.51,10.0,North,4.6,-,N/A,,Overcast,350,2013-02-15 19:55:00
1:55 PM,39.9,27.0,60,30.47,10.0,South,9.2,-,N/A,,Overcast,170,2013-02-15 20:55:00
2:55 PM,41.0,26.1,55,30.46,10.0,SSE,6.9,-,N/A,,Overcast,160,2013-02-15 21:55:00
3:55 PM,41.0,27.0,57,30.45,10.0,South,8.1,-,N/A,,Overcast,170,2013-02-15 22:55:00
4:55 PM,39.9,28.0,63,30.44,10.0,SSE,6.9,-,N/A,,Overcast,160,2013-02-15 23:55:00
5:55 PM,39.0,27.0,62,30.43,10.0,South,4.6,-,N/A,,Overcast,170,2013-02-16 00:55:00
6:55 PM,39.0,28.0,65,30.41,10.0,SSW,4.6,-,N/A,,Overcast,200,2013-02-16 01:55:00
7:55 PM,36.0,28.9,76,30.39,10.0,SW,5.8,-,N/A,,Overcast,220,2013-02-16 02:55:00
8:55 PM,37.0,30.0,76,30.38,10.0,SW,3.5,-,N/A,,Overcast,220,2013-02-16 03:55:00
9:55 PM,36.0,28.9,76,30.36,10.0,West,4.6,-,N/A,,Overcast,260,2013-02-16 04:55:00
10:55 PM,34.0,28.9,82,30.35,10.0,Calm,Calm,-,N/A,,Overcast,0,2013-02-16 05:55:00
11:55 PM,30.9,28.0,89,30.34,10.0,Calm,Calm,-,N/A,,Mostly Cloudy,0,2013-02-16 06:55:00